This demonstration page uses our WeatherBlox Daily Observations layout. Learn more.

Left ArrowRight Arrow

39.01783, -85.05884

Hourly Observations for June 13, 2021

Temp ( °F °C ) Dew Point ( °F °C ) Humidity (%) Winds ( mph kmh ) Pressure ( in mb ) Visibility ( mi km ) Precip ( " mm )
12:52 am 00:52 Partly Cloudy 75 23.9 69 20.6 82 82 N N/A 29.85 1011 10 16 N/A
1:52 am 01:52 Partly Cloudy 75 23.9 69 20.6 82 82 N 5 7 29.85 1011 10 16 N/A
2:52 am 02:52 Partly Cloudy 74 23.3 69 20.6 85 85 SSW 3 6 29.82 1010 10 16 N/A
3:52 am 03:52 Partly Cloudy 71 21.7 68 20 90 90 SSW 5 7 29.83 1010 10 16 N/A
4:52 am 04:52 Partly Cloudy 72 22.2 67 19.4 84 84 SW 5 7 29.83 1010 10 16 N/A
5:52 am 05:52 Partly Cloudy 72 22.2 67 19.4 84 84 SSW 5 7 29.83 1010 10 16 N/A
6:52 am 06:52 Partly Cloudy 72 22.2 67 19.4 84 84 N N/A 29.84 1011 10 16 N/A
7:52 am 07:52 Partly Cloudy 76 24.4 68 20 77 77 NNW 6 9 29.86 1011 10 16 N/A
8:52 am 08:52 Partly Cloudy 77 25 67 19.4 71 71 VRB 5 7 29.87 1012 10 16 N/A
9:52 am 09:52 Mostly Sunny 81 27.2 67 19.4 62 62 N N/A 29.88 1012 10 16 N/A
10:52 am 10:52 Partly Cloudy 83 28.3 67 19.4 59 59 N N/A 29.88 1012 10 16 N/A
11:52 am 11:52 Partly Cloudy 85 29.4 68 20 57 57 VRB 3 6 29.88 1012 10 16 N/A
12:52 pm 12:52 Mostly Cloudy 88 31.1 69 20.6 54 54 NNE 5 7 29.88 1012 10 16 N/A
1:52 pm 13:52 Mostly Cloudy 88 31.1 69 20.6 54 54 N 7 11 29.87 1012 10 16 N/A
2:30 pm 14:30 Mostly Cloudy with Thunderstorms 89 31.7 68 20 50 50 N 7 11 29.84 1011 10 16 N/A
2:52 pm 14:52 Mostly Cloudy with Thunderstorms 88 31.1 69 20.6 54 54 N 12 19 29.85 1011 10 16 N/A
3:37 pm 15:37 Mostly Cloudy 87 30.6 72 22.2 61 61 N 12 19 29.83 1010 10 16 0.00 0.00
3:52 pm 15:52 Partly Cloudy 88 31.1 71 21.7 57 57 N 12 19 29.83 1010 10 16 0.00 0.00
4:52 pm 16:52 Partly Cloudy 86 30 66 18.9 51 51 N 13 20 29.83 1010 10 16 N/A
5:52 pm 17:52 Partly Cloudy 88 31.1 65 18.3 46 46 NW 13 20 29.84 1011 10 16 N/A
6:52 pm 18:52 Partly Cloudy 87 30.6 65 18.3 48 48 NNW 12 19 29.83 1010 10 16 N/A
7:52 pm 19:52 Mostly Sunny 85 29.4 64 17.8 50 50 NNW 13 20 29.83 1010 10 16 N/A
8:52 pm 20:52 Mostly Sunny 82 27.8 62 16.7 51 51 NNW 9 15 29.84 1011 10 16 N/A
9:52 pm 21:52 Mostly Clear 79 26.1 61 16.1 54 54 NNW 9 15 29.86 1011 10 16 N/A
10:52 pm 22:52 Clear 77 25 59 15 54 54 N 8 13 29.89 1012 10 16 N/A
11:52 pm 23:52 Clear 74 23.3 59 15 60 60 NNW 3 6 29.91 1013 10 16 N/A

Powered by AerisWeather